• In Hungary
  • List of Countries
  • For 7 days
  • Water Temperature
  • Satellite Maps
  • Weather Map
  • News
  • Weather Widgets
  • user-avatar
    Login

    Hourly Weather Timsher

    Today, 26 May, Saturday

    Time Temperature Precipitation Wind Pressure Humidity
    00:00 +1°C° 0 mm 1 mps 758 mmHg 65%
    01:00 0°C° 0 mm 1 mps 758 mmHg 67%
    02:00 0°C° 0 mm 1 mps 758 mmHg 67%
    03:00 0°C° 0 mm 1 mps 758 mmHg 66%
    04:00 -1°C° 0 mm 2 mps 758 mmHg 67%
    05:00 +2°C° 0 mm 2 mps 758 mmHg 60%
    06:00 +4°C° 0 mm 2 mps 758 mmHg 54%
    07:00 +6°C° 0 mm 2 mps 757 mmHg 48%
    08:00 +7°C° 0 mm 3 mps 757 mmHg 46%
    09:00 +9°C° 0 mm 3 mps 756 mmHg 44%
    10:00 +10°C° 0 mm 3 mps 756 mmHg 42%
    11:00 +11°C° 0 mm 3 mps 756 mmHg 41%
    12:00 +12°C° 0 mm 3 mps 755 mmHg 40%
    13:00 +13°C° 0 mm 3 mps 755 mmHg 39%
    14:00 +13°C° 0 mm 3 mps 754 mmHg 39%
    15:00 +14°C° 0 mm 3 mps 754 mmHg 39%
    16:00 +14°C° 0 mm 3 mps 753 mmHg 37%
    17:00 +14°C° 0 mm 3 mps 752 mmHg 39%
    18:00 +14°C° 0 mm 3 mps 752 mmHg 42%
    19:00 +15°C° 0 mm 2 mps 751 mmHg 44%
    20:00 +13°C° 0 mm 3 mps 750 mmHg 49%
    21:00 +12°C° 0 mm 3 mps 750 mmHg 55%
    22:00 +10°C° 0 mm 3 mps 749 mmHg 60%
    23:00 +10°C° 0.1 mm 4 mps 748 mmHg 65%

    Tomorrow, 27 May, Sunday

    Time Temperature Precipitation Wind Pressure Humidity
    00:00 +10°C° 0.1 mm 4 mps 747 mmHg 69%
    01:00 +10°C° 0.1 mm 4 mps 746 mmHg 74%
    02:00 +10°C° 0.2 mm 4 mps 746 mmHg 78%
    03:00 +10°C° 0.2 mm 4 mps 746 mmHg 82%
    04:00 +8°C° 0.2 mm 4 mps 746 mmHg 86%
    05:00 +8°C° 0 mm 4 mps 746 mmHg 77%
    06:00 +8°C° 0 mm 4 mps 746 mmHg 68%
    07:00 +8°C° 0 mm 4 mps 746 mmHg 60%
    08:00 +10°C° 0 mm 4 mps 746 mmHg 51%
    09:00 +11°C° 0 mm 4 mps 746 mmHg 43%
    10:00 +12°C° 0 mm 4 mps 746 mmHg 35%
    11:00 +12°C° 0 mm 4 mps 746 mmHg 33%
    12:00 +13°C° 0 mm 4 mps 745 mmHg 32%
    13:00 +13°C° 0 mm 4 mps 745 mmHg 30%
    14:00 +13°C° 0 mm 4 mps 745 mmHg 33%
    15:00 +13°C° 0 mm 5 mps 744 mmHg 35%
    16:00 +12°C° 0 mm 5 mps 744 mmHg 38%
    17:00 +12°C° 0.1 mm 5 mps 744 mmHg 40%
    18:00 +11°C° 0.1 mm 4 mps 744 mmHg 42%
    19:00 +10°C° 0.1 mm 4 mps 743 mmHg 44%
    20:00 +8°C° 0 mm 4 mps 744 mmHg 49%
    21:00 +7°C° 0 mm 3 mps 744 mmHg 54%
    22:00 +5°C° 0 mm 3 mps 744 mmHg 59%
    23:00 +4°C° 0 mm 3 mps 744 mmHg 61%

    Day after tomorrow, 28 May, Monday

    Time Temperature Precipitation Wind Pressure Humidity
    00:00 +3°C° 0 mm 3 mps 745 mmHg 64%
    01:00 +2°C° 0 mm 3 mps 745 mmHg 67%
    02:00 +2°C° 0 mm 3 mps 745 mmHg 67%
    03:00 +2°C° 0 mm 3 mps 745 mmHg 68%
    04:00 +1°C° 0 mm 3 mps 746 mmHg 68%
    05:00 +1°C° 0 mm 4 mps 746 mmHg 65%
    06:00 +2°C° 0 mm 5 mps 746 mmHg 63%
    07:00 +3°C° 0 mm 5 mps 746 mmHg 60%
    08:00 +3°C° 0.1 mm 6 mps 746 mmHg 57%
    09:00 +4°C° 0.1 mm 6 mps 747 mmHg 55%
    10:00 +4°C° 0.1 mm 6 mps 747 mmHg 53%
    11:00 +5°C° 0.1 mm 6 mps 747 mmHg 51%
    12:00 +5°C° 0.1 mm 6 mps 748 mmHg 50%
    13:00 +5°C° 0.1 mm 6 mps 748 mmHg 48%
    14:00 +5°C° 0.1 mm 6 mps 748 mmHg 48%
    15:00 +5°C° 0.1 mm 6 mps 749 mmHg 48%
    16:00 +5°C° 0.1 mm 6 mps 749 mmHg 47%
    17:00 +5°C° 0.1 mm 6 mps 749 mmHg 49%
    18:00 +6°C° 0.1 mm 5 mps 749 mmHg 50%
    19:00 +5°C° 0.1 mm 5 mps 750 mmHg 51%
    20:00 +4°C° 0 mm 4 mps 750 mmHg 57%
    21:00 +3°C° 0 mm 3 mps 750 mmHg 63%
    22:00 +3°C° 0 mm 2 mps 750 mmHg 68%
    23:00 +2°C° 0 mm 2 mps 749 mmHg 72%

    29 May, Tuesday

    Time Temperature Precipitation Wind Pressure Humidity
    00:00 +1°C° 0 mm 2 mps 749 mmHg 77%
    01:00 +1°C° 0 mm 1 mps 749 mmHg 81%
    02:00 +2°C° 0 mm 1 mps 749 mmHg 80%
    03:00 +2°C° 0 mm 1 mps 748 mmHg 79%
    04:00 +2°C° 0 mm 1 mps 748 mmHg 78%
    05:00 +3°C° 0.1 mm 1 mps 748 mmHg 72%
    06:00 +5°C° 0.1 mm 1 mps 747 mmHg 66%
    07:00 +6°C° 0.1 mm 1 mps 747 mmHg 60%
    08:00 +7°C° 0.1 mm 1 mps 747 mmHg 59%
    09:00 +8°C° 0.1 mm 1 mps 746 mmHg 58%
    10:00 +9°C° 0.1 mm 1 mps 746 mmHg 57%
    11:00 +10°C° 0.1 mm 1 mps 746 mmHg 56%
    12:00 +10°C° 0.1 mm 1 mps 746 mmHg 55%
    13:00 +11°C° 0.1 mm 1 mps 746 mmHg 54%
    14:00 +10°C° 0.2 mm 2 mps 746 mmHg 53%
    15:00 +10°C° 0.2 mm 2 mps 745 mmHg 53%
    16:00 +10°C° 0.2 mm 2 mps 745 mmHg 53%
    17:00 +10°C° 0.1 mm 2 mps 745 mmHg 56%
    18:00 +10°C° 0.1 mm 2 mps 745 mmHg 59%
    19:00 +10°C° 0.1 mm 1 mps 745 mmHg 62%
    20:00 +9°C° 0.1 mm 1 mps 745 mmHg 66%
    21:00 +8°C° 0.1 mm 1 mps 744 mmHg 71%
    22:00 +5°C° 0.1 mm 0 mps 744 mmHg 75%
    23:00 +6°C° 0 mm 1 mps 744 mmHg 77%

    30 May, Wednesday

    Time Temperature Precipitation Wind Pressure Humidity
    00:00 +5°C° 0 mm 1 mps 743 mmHg 78%
    01:00 +4°C° 0 mm 1 mps 743 mmHg 79%
    02:00 +4°C° 0 mm 1 mps 742 mmHg 81%
    03:00 +4°C° 0 mm 1 mps 742 mmHg 82%
    04:00 +4°C° 0 mm 1 mps 742 mmHg 83%
    05:00 +5°C° 0 mm 1 mps 741 mmHg 79%
    06:00 +5°C° 0 mm 2 mps 740 mmHg 76%
    07:00 +6°C° 0 mm 2 mps 740 mmHg 72%
    08:00 +7°C° 0.1 mm 3 mps 739 mmHg 69%
    09:00 +8°C° 0.1 mm 3 mps 738 mmHg 65%
    10:00 +8°C° 0.1 mm 4 mps 736 mmHg 61%
    11:00 +8°C° 0.5 mm 4 mps 736 mmHg 66%
    12:00 +7°C° 0.5 mm 4 mps 735 mmHg 71%
    13:00 +7°C° 0.5 mm 4 mps 734 mmHg 75%
    14:00 +7°C° 0.7 mm 4 mps 733 mmHg 80%
    15:00 +6°C° 0.7 mm 4 mps 733 mmHg 84%
    16:00 +6°C° 0.7 mm 4 mps 732 mmHg 88%
    17:00 +6°C° 0.6 mm 4 mps 731 mmHg 89%
    18:00 +6°C° 0.6 mm 4 mps 731 mmHg 91%
    19:00 +6°C° 0.6 mm 4 mps 730 mmHg 92%
    20:00 +6°C° 0.9 mm 4 mps 730 mmHg 92%
    21:00 +5°C° 0.9 mm 4 mps 729 mmHg 92%
    22:00 +5°C° 0.9 mm 4 mps 729 mmHg 93%
    23:00 +5°C° 2 mm 5 mps 729 mmHg 92%

    31 May, Thursday

    Time Temperature Precipitation Wind Pressure Humidity
    00:00 +3°C° 2 mm 5 mps 728 mmHg 91%
    01:00 +3°C° 2 mm 6 mps 728 mmHg 90%
    02:00 +3°C° 1.7 mm 6 mps 728 mmHg 89%
    03:00 +3°C° 1.7 mm 7 mps 728 mmHg 88%
    04:00 +1°C° 1.7 mm 8 mps 728 mmHg 87%
    05:00 +1°C° 1.9 mm 8 mps 729 mmHg 86%
    06:00 +1°C° 1.9 mm 8 mps 729 mmHg 85%
    07:00 +1°C° 1.9 mm 8 mps 730 mmHg 83%
    08:00 +1°C° 1.5 mm 8 mps 731 mmHg 83%
    09:00 +1°C° 1.5 mm 8 mps 732 mmHg 82%
    10:00 +2°C° 1.5 mm 7 mps 732 mmHg 81%
    11:00 +2°C° 0.7 mm 7 mps 733 mmHg 80%
    12:00 +3°C° 0.7 mm 6 mps 734 mmHg 80%
    13:00 +3°C° 0.7 mm 6 mps 735 mmHg 79%
    14:00 +4°C° 0.4 mm 6 mps 736 mmHg 76%
    15:00 +6°C° 0.4 mm 5 mps 737 mmHg 73%
    16:00 +7°C° 0.4 mm 5 mps 738 mmHg 70%
    17:00 +6°C° 0.1 mm 5 mps 739 mmHg 69%
    18:00 +6°C° 0.1 mm 4 mps 739 mmHg 68%
    19:00 +6°C° 0.1 mm 4 mps 740 mmHg 68%
    20:00 +5°C° 0 mm 4 mps 740 mmHg 69%
    21:00 +4°C° 0 mm 4 mps 741 mmHg 71%
    22:00 +3°C° 0 mm 4 mps 741 mmHg 72%
    23:00 +1°C° 0 mm 4 mps 742 mmHg 73%
    Show more